Location: Unspecified
(58.9933°N, 5.6375°E)
Time: 21:37:02
(UTC+01:00)

Resurs 1-4 Rocket - Visible Passes

Search period start: 27 February 2017 00:00
Search period end: 09 March 2017 00:00
Orbit: 801 x 813 km, 98.5° (Epoch: 27 February)

Date Brightness Start Highest point End Pass type
(mag) Time Alt. Az. Time Alt. Az. Time Alt. Az.
27 Feb 4.5 01:41:53 10° NE 01:44:04 15° ENE 01:44:04 15° ENE visible
27 Feb 2.6 03:20:43 10° NNE 03:25:09 57° NE 03:25:09 57° NE visible
27 Feb 2.9 05:00:57 10° N 05:05:38 32° NW 05:06:14 31° WNW visible
27 Feb 4.1 06:42:13 10° N 06:44:04 12° NNW 06:45:55 10° NW visible
28 Feb 4.8 01:18:40 10° ENE 01:19:19 11° ENE 01:19:19 11° ENE visible
28 Feb 3.1 02:56:13 10° NNE 03:00:24 43° ENE 03:00:24 43° ENE visible
28 Feb 2.5 04:36:13 10° N 04:41:16 43° WNW 04:41:30 43° WNW visible
28 Feb 3.9 06:17:05 10° N 06:19:57 15° NW 06:22:35 11° WNW visible
01 Mar 3.6 02:31:47 10° NNE 02:35:40 32° ENE 02:35:40 32° ENE visible
01 Mar 2.2 04:11:34 10° NNE 04:16:46 59° WNW 04:16:46 59° WNW visible
01 Mar 3.7 05:52:10 10° N 05:55:46 19° NW 05:57:51 15° WNW visible
02 Mar 4.0 02:07:31 10° NE 02:10:56 23° ENE 02:10:56 23° ENE visible
02 Mar 2.1 03:46:56 10° NNE 03:52:01 79° NNW 03:52:01 79° NNW visible
02 Mar 3.4 05:27:22 10° N 05:31:33 24° NW 05:33:07 21° WNW visible
03 Mar 4.4 01:43:28 10° NE 01:46:12 17° ENE 01:46:12 17° ENE visible
03 Mar 2.3 03:22:22 10° NNE 03:27:17 68° ENE 03:27:17 68° ENE visible
03 Mar 3.0 05:02:35 10° N 05:07:15 31° NW 05:08:23 29° WNW visible
03 Mar 4.1 06:43:55 10° NNW 06:45:40 12° NNW 06:47:24 10° NW visible
04 Mar 4.7 01:20:08 10° ENE 01:21:28 11° ENE 01:21:28 11° ENE visible
04 Mar 2.8 02:57:50 10° NNE 03:02:33 48° E 03:02:33 48° E visible
04 Mar 2.6 04:37:52 10° N 04:42:53 42° WNW 04:43:39 39° W visible
04 Mar 4.0 06:18:46 10° N 06:21:33 14° NW 06:24:20 10° WNW visible
05 Mar 3.4 02:33:25 10° NNE 02:37:49 34° E 02:37:49 34° E visible
05 Mar 2.2 04:13:12 10° NNE 04:18:27 58° WNW 04:18:55 56° W visible
05 Mar 3.7 05:53:51 10° N 05:57:23 18° NW 05:59:59 13° WNW visible
06 Mar 3.9 02:09:07 10° NE 02:13:05 24° E 02:13:05 24° E visible
06 Mar 1.9 03:48:34 10° NNE 03:53:56 81° WNW 03:54:10 78° WSW visible
06 Mar 3.4 05:29:01 10° N 05:33:09 23° NW 05:35:16 18° W visible
07 Mar 4.3 01:45:03 10° NE 01:48:21 17° E 01:48:21 17° E visible
07 Mar 2.1 03:23:59 10° NNE 03:29:21 73° ESE 03:29:26 73° ESE visible
07 Mar 3.1 05:04:14 10° N 05:08:51 31° NW 05:10:32 25° W visible
08 Mar 4.6 01:21:36 10° ENE 01:23:31 12° ENE 01:23:37 12° E visible
08 Mar 2.7 02:59:28 10° NNE 03:04:41 51° E 03:04:42 51° E visible
08 Mar 2.7 04:39:31 10° N 04:44:30 41° WNW 04:45:48 35° W visible
08 Mar 4.0 06:20:26 10° N 06:23:08 14° NW 06:25:50 10° WNW visible
